Time,TemperatureF,DewpointF,PressureIn,WindDirection,WindDirectionDegrees,WindSpeedMPH,WindSpeedGustMPH,Humidity,HourlyPrecipIn,Conditions,Clouds,dailyrainin,SoftwareType,DateUTC
2013-06-29 00:01:00,59.0,58.0,-100.00,NNE,15,4.0,9.0,96,-99.99,,,-99.99,,2013-06-29 05:01:00,
2013-06-29 00:31:00,59.0,58.0,-100.00,North,350,3.0,8.0,96,-99.99,,,-99.99,,2013-06-29 05:31:00,
2013-06-29 00:41:00,59.0,58.0,-100.00,North,350,3.0,8.0,96,-99.99,,,-99.99,,2013-06-29 05:41:00,
2013-06-29 00:52:00,59.0,58.0,-100.00,North,350,3.0,8.0,96,-99.99,,,-99.99,,2013-06-29 05:52:00,
2013-06-29 01:01:00,59.0,58.0,-100.00,North,350,3.0,8.0,96,-99.99,,,-99.99,,2013-06-29 06:01:00,
2013-06-29 01:34:00,59.0,58.0,-100.00,North,0,6.0,9.0,97,-99.99,,,-99.99,,2013-06-29 06:34:00,
2013-06-29 01:43:00,59.0,58.0,-100.00,North,0,6.0,9.0,97,-99.99,,,-99.99,,2013-06-29 06:43:00,
2013-06-29 01:53:00,59.0,58.0,-100.00,North,0,6.0,9.0,97,-99.99,,,-99.99,,2013-06-29 06:53:00,
2013-06-29 02:02:00,59.0,58.0,-100.00,North,0,6.0,9.0,97,-99.99,,,-99.99,,2013-06-29 07:02:00,
2013-06-29 02:33:00,59.0,59.0,-100.00,NNE,15,4.0,10.0,98,-99.99,,,-99.99,,2013-06-29 07:33:00,
2013-06-29 02:43:00,59.0,59.0,-100.00,NNE,15,4.0,10.0,98,-99.99,,,-99.99,,2013-06-29 07:43:00,
2013-06-29 02:53:00,59.0,59.0,-100.00,NNE,15,4.0,10.0,98,-99.99,,,-99.99,,2013-06-29 07:53:00,
2013-06-29 03:01:00,59.0,59.0,-100.00,NNE,15,4.0,10.0,98,-99.99,,,-99.99,,2013-06-29 08:01:00,
2013-06-29 03:33:00,59.0,59.0,-100.00,North,0,7.0,12.0,99,-99.99,,,-99.99,,2013-06-29 08:33:00,
2013-06-29 03:43:00,59.0,59.0,-100.00,North,0,7.0,12.0,99,-99.99,,,-99.99,,2013-06-29 08:43:00,
2013-06-29 03:52:00,59.0,59.0,-100.00,North,0,7.0,12.0,99,-99.99,,,-99.99,,2013-06-29 08:52:00,
2013-06-29 04:02:00,59.0,59.0,-100.00,North,0,7.0,12.0,99,-99.99,,,-99.99,,2013-06-29 09:02:00,
2013-06-29 04:33:00,59.0,59.0,-100.00,North,5,6.0,11.0,99,-99.99,,,-99.99,,2013-06-29 09:33:00,
2013-06-29 04:42:00,59.0,59.0,-100.00,North,5,6.0,11.0,99,-99.99,,,-99.99,,2013-06-29 09:42:00,
2013-06-29 04:53:00,59.0,59.0,-100.00,North,5,6.0,11.0,99,-99.99,,,-99.99,,2013-06-29 09:53:00,
2013-06-29 05:01:00,59.0,59.0,-100.00,North,5,6.0,11.0,99,-99.99,,,-99.99,,2013-06-29 10:01:00,
2013-06-29 05:33:00,59.0,59.0,-100.00,North,5,7.0,14.0,99,-99.99,,,-99.99,,2013-06-29 10:33:00,
2013-06-29 05:43:00,59.0,59.0,-100.00,North,5,7.0,14.0,99,-99.99,,,-99.99,,2013-06-29 10:43:00,
2013-06-29 05:53:00,59.0,59.0,-100.00,North,5,7.0,14.0,99,-99.99,,,-99.99,,2013-06-29 10:53:00,
2013-06-29 06:02:00,59.0,59.0,-100.00,North,5,7.0,14.0,99,-99.99,,,-99.99,,2013-06-29 11:02:00,
2013-06-29 06:33:00,59.0,58.0,-100.00,NNE,15,4.0,8.0,98,-99.99,,,-99.99,,2013-06-29 11:33:00,
2013-06-29 06:43:00,59.0,58.0,-100.00,NNE,15,4.0,8.0,98,-99.99,,,-99.99,,2013-06-29 11:43:00,
2013-06-29 06:53:00,59.0,58.0,-100.00,NNE,15,4.0,8.0,98,-99.99,,,-99.99,,2013-06-29 11:53:00,
2013-06-29 07:02:00,59.0,58.0,-100.00,NNE,15,4.0,8.0,98,-99.99,,,-99.99,,2013-06-29 12:02:00,
2013-06-29 07:34:00,59.0,58.0,-100.00,NNE,15,4.0,7.0,98,-99.99,,,-99.99,,2013-06-29 12:34:00,
2013-06-29 07:43:00,59.0,58.0,-100.00,NNE,15,4.0,7.0,98,-99.99,,,-99.99,,2013-06-29 12:43:00,
2013-06-29 07:53:00,59.0,58.0,-100.00,NNE,15,4.0,7.0,98,-99.99,,,-99.99,,2013-06-29 12:53:00,
2013-06-29 08:02:00,59.0,58.0,-100.00,NNE,15,4.0,7.0,98,-99.99,,,-99.99,,2013-06-29 13:02:00,
2013-06-29 08:34:00,60.0,57.0,-100.00,North,10,3.0,7.0,89,-99.99,,,-99.99,,2013-06-29 13:34:00,
2013-06-29 08:43:00,60.0,57.0,-100.00,North,10,3.0,7.0,89,-99.99,,,-99.99,,2013-06-29 13:43:00,
2013-06-29 08:53:00,60.0,57.0,-100.00,North,10,3.0,7.0,89,-99.99,,,-99.99,,2013-06-29 13:53:00,
2013-06-29 09:02:00,60.0,57.0,-100.00,North,10,3.0,7.0,89,-99.99,,,-99.99,,2013-06-29 14:02:00,
2013-06-29 09:34:00,62.0,56.0,-100.00,NNE,20,3.0,7.0,79,-99.99,,,-99.99,,2013-06-29 14:34:00,
2013-06-29 09:45:00,62.0,56.0,-100.00,NNE,20,3.0,7.0,79,-99.99,,,-99.99,,2013-06-29 14:45:00,
2013-06-29 09:53:00,62.0,56.0,-100.00,NNE,20,3.0,7.0,79,-99.99,,,-99.99,,2013-06-29 14:53:00,
2013-06-29 10:01:00,62.0,56.0,-100.00,NNE,20,3.0,7.0,79,-99.99,,,-99.99,,2013-06-29 15:01:00,
2013-06-29 10:10:00,66.0,55.0,-100.00,North,0,9.0,13.0,67,-99.99,,,-99.99,,2013-06-29 15:10:00,
2013-06-29 10:33:00,66.0,55.0,-100.00,North,0,9.0,13.0,67,-99.99,,,-99.99,,2013-06-29 15:33:00,
2013-06-29 10:42:00,66.0,55.0,-100.00,North,0,9.0,13.0,67,-99.99,,,-99.99,,2013-06-29 15:42:00,
2013-06-29 10:53:00,66.0,55.0,-100.00,North,0,9.0,13.0,67,-99.99,,,-99.99,,2013-06-29 15:53:00,
2013-06-29 11:02:00,66.0,55.0,-100.00,North,0,9.0,13.0,67,-99.99,,,-99.99,,2013-06-29 16:02:00,
2013-06-29 11:34:00,65.0,54.0,-100.00,NNE,15,7.0,17.0,66,-99.99,,,-99.99,,2013-06-29 16:34:00,
2013-06-29 11:43:00,65.0,54.0,-100.00,NNE,15,7.0,17.0,66,-99.99,,,-99.99,,2013-06-29 16:43:00,
2013-06-29 11:53:00,65.0,54.0,-100.00,NNE,15,7.0,17.0,66,-99.99,,,-99.99,,2013-06-29 16:53:00,
2013-06-29 12:01:00,65.0,54.0,-100.00,NNE,15,7.0,17.0,66,-99.99,,,-99.99,,2013-06-29 17:01:00,
2013-06-29 12:34:00,68.0,54.0,-100.00,NE,45,5.0,21.0,62,-99.99,,,-99.99,,2013-06-29 17:34:00,
2013-06-29 12:42:00,68.0,54.0,-100.00,NE,45,5.0,21.0,62,-99.99,,,-99.99,,2013-06-29 17:42:00,
2013-06-29 12:53:00,68.0,54.0,-100.00,NE,45,5.0,21.0,62,-99.99,,,-99.99,,2013-06-29 17:53:00,
2013-06-29 13:01:00,68.0,54.0,-100.00,NE,45,5.0,21.0,62,-99.99,,,-99.99,,2013-06-29 18:01:00,
2013-06-29 13:34:00,66.0,50.0,-100.00,NNE,15,10.0,21.0,55,-99.99,,,-99.99,,2013-06-29 18:34:00,
2013-06-29 13:43:00,66.0,50.0,-100.00,NNE,15,10.0,21.0,55,-99.99,,,-99.99,,2013-06-29 18:43:00,
2013-06-29 13:53:00,66.0,50.0,-100.00,NNE,15,10.0,21.0,55,-99.99,,,-99.99,,2013-06-29 18:53:00,
2013-06-29 14:01:00,66.0,50.0,-100.00,NNE,15,10.0,21.0,55,-99.99,,,-99.99,,2013-06-29 19:01:00,
2013-06-29 14:10:00,68.0,49.0,-100.00,North,0,11.0,20.0,51,-99.99,,,-99.99,,2013-06-29 19:10:00,
2013-06-29 14:34:00,68.0,49.0,-100.00,North,0,11.0,20.0,51,-99.99,,,-99.99,,2013-06-29 19:34:00,
2013-06-29 14:43:00,68.0,49.0,-100.00,North,0,11.0,20.0,51,-99.99,,,-99.99,,2013-06-29 19:43:00,
2013-06-29 14:54:00,68.0,49.0,-100.00,North,0,11.0,20.0,51,-99.99,,,-99.99,,2013-06-29 19:54:00,
2013-06-29 15:02:00,68.0,49.0,-100.00,North,0,11.0,20.0,51,-99.99,,,-99.99,,2013-06-29 20:02:00,
2013-06-29 15:33:00,71.0,51.0,-100.00,North,0,4.0,16.0,49,-99.99,,,-99.99,,2013-06-29 20:33:00,
2013-06-29 15:43:00,71.0,51.0,-100.00,North,0,4.0,16.0,49,-99.99,,,-99.99,,2013-06-29 20:43:00,
2013-06-29 15:52:00,71.0,51.0,-100.00,North,0,4.0,16.0,49,-99.99,,,-99.99,,2013-06-29 20:52:00,
2013-06-29 16:02:00,71.0,51.0,-100.00,North,0,4.0,16.0,49,-99.99,,,-99.99,,2013-06-29 21:02:00,
2013-06-29 16:32:00,69.0,46.0,-100.00,NNE,30,8.0,21.0,45,-99.99,,,-99.99,,2013-06-29 21:32:00,
2013-06-29 16:42:00,69.0,46.0,-100.00,NNE,30,8.0,21.0,45,-99.99,,,-99.99,,2013-06-29 21:42:00,
2013-06-29 16:52:00,69.0,46.0,-100.00,NNE,30,8.0,21.0,45,-99.99,,,-99.99,,2013-06-29 21:52:00,
2013-06-29 17:01:00,69.0,46.0,-100.00,NNE,30,8.0,21.0,45,-99.99,,,-99.99,,2013-06-29 22:01:00,
2013-06-29 17:33:00,69.0,45.0,-100.00,North,0,6.0,14.0,43,-99.99,,,-99.99,,2013-06-29 22:33:00,
2013-06-29 17:43:00,69.0,45.0,-100.00,North,0,6.0,14.0,43,-99.99,,,-99.99,,2013-06-29 22:43:00,
2013-06-29 17:53:00,69.0,45.0,-100.00,North,0,6.0,14.0,43,-99.99,,,-99.99,,2013-06-29 22:53:00,
2013-06-29 18:02:00,69.0,45.0,-100.00,North,0,6.0,14.0,43,-99.99,,,-99.99,,2013-06-29 23:02:00,
2013-06-29 18:34:00,67.0,44.0,-100.00,North,5,6.0,15.0,44,-99.99,,,-99.99,,2013-06-29 23:34:00,
2013-06-29 18:43:00,67.0,44.0,-100.00,North,5,6.0,15.0,44,-99.99,,,-99.99,,2013-06-29 23:43:00,
2013-06-29 18:53:00,67.0,44.0,-100.00,North,5,6.0,15.0,44,-99.99,,,-99.99,,2013-06-29 23:53:00,
2013-06-29 19:02:00,67.0,44.0,-100.00,North,5,6.0,15.0,44,-99.99,,,-99.99,,2013-06-30 00:02:00,
2013-06-29 19:34:00,65.0,43.0,-100.00,NNE,25,4.0,12.0,45,-99.99,,,-99.99,,2013-06-30 00:34:00,
2013-06-29 19:43:00,65.0,43.0,-100.00,NNE,25,4.0,12.0,45,-99.99,,,-99.99,,2013-06-30 00:43:00,
2013-06-29 19:52:00,65.0,43.0,-100.00,NNE,25,4.0,12.0,45,-99.99,,,-99.99,,2013-06-30 00:52:00,
2013-06-29 20:01:00,65.0,43.0,-100.00,NNE,25,4.0,12.0,45,-99.99,,,-99.99,,2013-06-30 01:01:00,
2013-06-29 20:33:00,62.0,43.0,-100.00,North,0,3.0,8.0,50,-99.99,,,-99.99,,2013-06-30 01:33:00,
2013-06-29 20:44:00,62.0,43.0,-100.00,North,0,3.0,8.0,50,-99.99,,,-99.99,,2013-06-30 01:44:00,
2013-06-29 20:53:00,62.0,43.0,-100.00,North,0,3.0,8.0,50,-99.99,,,-99.99,,2013-06-30 01:53:00,
2013-06-29 21:02:00,62.0,43.0,-100.00,North,0,3.0,8.0,50,-99.99,,,-99.99,,2013-06-30 02:02:00,
2013-06-29 21:34:00,57.0,48.0,-100.00,SE,140,1.0,1.0,74,-99.99,,,-99.99,,2013-06-30 02:34:00,
2013-06-29 21:43:00,57.0,48.0,-100.00,SE,140,1.0,1.0,74,-99.99,,,-99.99,,2013-06-30 02:43:00,
2013-06-29 21:53:00,57.0,48.0,-100.00,SE,140,1.0,1.0,74,-99.99,,,-99.99,,2013-06-30 02:53:00,
2013-06-29 22:01:00,57.0,48.0,-100.00,SE,140,1.0,1.0,74,-99.99,,,-99.99,,2013-06-30 03:01:00,
2013-06-29 22:34:00,51.0,49.0,-100.00,NNE,20,1.0,2.0,92,-99.99,,,-99.99,,2013-06-30 03:34:00,
2013-06-29 22:43:00,51.0,49.0,-100.00,NNE,20,1.0,2.0,92,-99.99,,,-99.99,,2013-06-30 03:43:00,
2013-06-29 22:53:00,51.0,49.0,-100.00,NNE,20,1.0,2.0,92,-99.99,,,-99.99,,2013-06-30 03:53:00,
2013-06-29 23:01:00,51.0,49.0,-100.00,NNE,20,1.0,2.0,92,-99.99,,,-99.99,,2013-06-30 04:01:00,
2013-06-29 23:33:00,48.0,47.0,-100.00,North,5,0.0,1.0,95,-99.99,,,-99.99,,2013-06-30 04:33:00,
2013-06-29 23:43:00,48.0,47.0,-100.00,North,5,0.0,1.0,95,-99.99,,,-99.99,,2013-06-30 04:43:00,
2013-06-29 23:53:00,48.0,47.0,-100.00,North,5,0.0,1.0,95,-99.99,,,-99.99,,2013-06-30 04:53:00,